"startDT [UTC]","vpos","CH4 [ppm]","stdev(CH4) [ppm]","CO2 [ppm]","stdev(CO2) [ppm]","H2O_reported [%]","stdev(H2O_reported)","CavityPressure [torr]","CavityTemp [C]","OutletValve","CH4_dry [ppm]","CO2_dry [ppm]","DasTemp [C]","EtalonTemp [C]","WarmBoxTemp [C]","MPVPosition","T_ECpre [C]","T_EC1 [C]","T_EC2 [C]","p_inlet [hPa]","p_in [hPa]","p_out [hPa]","T_inlet [C]","RH_inlet [%]","dwpt_inlet [C]","T_vent [C]","RH_vent [%]","dwpt_vent [C]","flow_vent [l min-1]","flow_inlet [l min-1]","dwpt_sample [C]","T_room [C]"
2015-05-03 00:00:00,0.0,1.91535,0.00040,404.185,0.032,0.2141,0.0015,139.998,45.000,34174.12907,1.91943,405.231,32.816,45.069,45.000,0.00,0.09,-272.73,-272.78,-1,963,-1,21.0,6.5,-17.1,20.7,6.6,-17.0,5.73,2.07,-13.4,25.6
2015-05-03 00:01:00,0.0,1.91564,0.00041,404.201,0.035,0.2140,0.0020,140.001,45.000,34172.71593,1.91965,405.246,32.857,45.068,45.000,0.00,0.09,-272.72,-272.76,-0,963,-1,21.0,6.5,-17.1,20.7,6.7,-16.9,5.73,2.04,-13.3,25.7
2015-05-03 00:02:00,0.0,1.91592,0.00033,404.181,0.027,0.2139,0.0020,140.004,45.000,34172.87676,1.92000,405.225,32.854,45.068,45.000,0.00,0.09,-272.72,-272.77,-1,964,-1,21.0,6.4,-17.2,20.7,6.6,-17.0,5.73,1.94,-13.3,25.6
2015-05-03 00:03:00,0.0,1.91581,0.00045,404.207,0.039,0.2131,0.0018,139.997,45.000,34171.33258,1.91984,405.248,32.858,45.068,45.000,0.00,0.09,-272.73,-272.78,-1,964,-1,21.0,6.4,-17.1,20.7,6.6,-17.0,5.73,1.94,-13.2,25.6
2015-05-03 00:04:00,0.0,1.91585,0.00025,404.219,0.033,0.2141,0.0017,140.000,45.000,34172.57861,1.91989,405.266,32.833,45.068,45.000,0.00,0.09,-272.72,-272.77,-1,965,-1,21.0,6.5,-17.1,20.7,6.6,-17.0,5.73,2.02,-13.3,25.6
2015-05-03 00:05:00,0.0,1.91599,0.00038,404.222,0.022,0.2145,0.0014,139.998,45.000,34173.09200,1.92006,405.270,32.815,45.068,45.000,0.00,0.09,-272.72,-272.78,-1,964,-1,21.0,6.5,-17.1,20.7,6.7,-16.9,5.73,2.06,-13.3,25.5
2015-05-03 00:06:00,0.0,1.91544,0.00033,404.210,0.036,0.2136,0.0015,139.995,45.000,34178.72808,1.91950,405.253,32.812,45.068,45.000,0.00,0.09,-272.72,-272.78,-1,966,-1,21.0,6.4,-17.1,20.7,6.6,-16.9,5.73,2.03,-13.3,25.3
2015-05-03 00:07:00,0.0,1.91564,0.00040,404.190,0.026,0.2128,0.0017,139.999,45.000,34184.22676,1.91969,405.232,32.772,45.068,45.000,0.00,0.09,-272.72,-272.78,-1,966,-1,21.1,6.4,-17.1,20.8,6.6,-17.0,5.73,1.98,-13.2,25.2
2015-05-03 00:08:00,0.0,1.91577,0.00035,404.207,0.038,0.2139,0.0019,140.000,45.000,34187.88757,1.91980,405.251,32.727,45.068,45.000,0.00,0.09,-272.72,-272.77,-1,966,-1,21.1,6.4,-17.1,20.8,6.6,-17.0,5.73,1.98,-13.2,25.2
2015-05-03 00:09:00,0.0,1.91558,0.00036,404.195,0.033,0.2156,0.0010,140.001,45.000,34191.90944,1.91966,405.248,32.664,45.068,45.000,0.00,0.09,-272.72,-272.78,-1,968,-1,21.1,6.5,-17.0,20.8,6.7,-16.9,5.73,1.98,-13.3,25.2
2015-05-03 00:10:00,0.0,1.91565,0.00028,404.177,0.029,0.2184,0.0019,139.999,44.999,34195.89059,1.91979,405.244,32.594,45.068,45.000,0.00,0.09,-272.72,-272.78,-2,969,-1,21.2,6.5,-16.8,20.8,6.7,-16.8,5.73,2.01,-13.3,25.2
2015-05-03 00:11:00,0.0,1.91548,0.00037,404.214,0.028,0.2165,0.0023,140.007,44.999,34202.56736,1.91960,405.271,32.478,45.068,45.000,0.00,0.09,-272.71,-272.77,-2,971,-1,21.2,6.5,-16.9,20.8,6.7,-16.8,5.73,2.02,-13.3,25.3
2015-05-03 00:12:00,0.0,1.91545,0.00038,404.180,0.037,0.2162,0.0013,140.000,44.999,34203.78617,1.91955,405.238,32.359,45.068,45.000,0.00,0.09,-272.72,-272.77,-2,972,-1,21.2,6.4,-17.0,20.9,6.7,-16.8,5.73,2.01,-13.3,25.5
2015-05-03 00:13:00,0.0,1.91537,0.00028,404.157,0.025,0.2172,0.0019,139.998,44.999,34207.28463,1.91949,405.218,32.248,45.069,45.001,0.00,0.09,-272.73,-272.78,-2,972,-1,21.2,6.5,-16.9,20.9,6.7,-16.7,5.73,2.01,-13.3,25.5
2015-05-03 00:14:00,0.0,1.91555,0.00034,404.186,0.031,0.2179,0.0013,140.001,44.999,34207.74537,1.91967,405.250,32.145,45.069,45.001,0.00,0.09,-272.72,-272.77,-2,974,-1,21.2,6.5,-16.9,20.8,6.7,-16.7,5.73,1.99,-13.2,25.6
2015-05-03 00:15:00,0.0,1.91563,0.00035,404.163,0.030,0.2174,0.0018,140.001,44.999,34208.58226,1.91974,405.226,32.096,45.069,45.001,0.00,0.09,-272.71,-272.77,-2,974,-1,21.2,6.5,-16.9,20.8,6.7,-16.7,5.73,1.99,-13.3,25.5
2015-05-03 00:16:00,0.0,1.91546,0.00026,404.172,0.027,0.2167,0.0016,140.000,44.999,34208.45848,1.91956,405.231,32.028,45.069,45.001,0.00,0.09,-272.72,-272.78,-2,974,-1,21.2,6.5,-17.0,20.9,6.7,-16.8,5.73,1.97,-13.3,25.5
2015-05-03 00:17:00,0.0,1.91551,0.00039,404.175,0.035,0.2156,0.0015,139.998,44.999,34210.00504,1.91960,405.227,31.969,45.069,45.001,0.00,0.09,-272.72,-272.78,-3,975,-1,21.2,6.4,-17.1,20.8,6.7,-16.9,5.73,1.98,-13.3,25.4
2015-05-03 00:18:00,0.0,1.91559,0.00026,404.154,0.030,0.2157,0.0022,139.998,44.999,34206.80764,1.91969,405.208,31.911,45.069,45.001,0.00,0.09,-272.71,-272.78,-3,975,-1,21.2,6.4,-17.1,20.8,6.7,-16.8,5.73,1.98,-13.3,25.4
2015-05-03 00:19:00,0.0,1.91568,0.00040,404.190,0.028,0.2150,0.0015,139.999,44.999,34204.28853,1.91975,405.242,31.881,45.069,45.001,0.00,0.09,-272.72,-272.77,-3,975,-1,21.2,6.4,-17.1,20.9,6.7,-16.8,5.73,1.99,-13.3,25.4
2015-05-03 00:20:00,0.0,1.91567,0.00035,404.179,0.033,0.2131,0.0018,140.001,45.000,34205.72274,1.91969,405.220,31.929,45.069,45.001,0.00,0.09,-272.72,-272.78,-3,974,-1,21.2,6.3,-17.2,20.8,6.6,-17.0,5.73,2.00,-13.3,25.4
2015-05-03 00:21:00,0.0,1.91559,0.00029,404.188,0.033,0.2136,0.0016,139.998,45.000,34204.40281,1.91964,405.232,31.973,45.069,45.000,0.00,0.09,-272.72,-272.77,-3,974,-1,21.2,6.4,-17.1,20.8,6.6,-17.0,5.73,2.00,-13.3,25.5
2015-05-03 00:22:00,0.0,1.91565,0.00034,404.206,0.031,0.2141,0.0016,140.000,45.000,34203.28106,1.91973,405.251,32.021,45.069,45.000,0.00,0.09,-272.72,-272.77,-3,974,-1,21.1,6.4,-17.1,20.9,6.6,-16.9,5.73,2.00,-13.3,25.5
2015-05-03 00:23:00,0.0,1.91545,0.00034,404.166,0.035,0.2168,0.0021,139.998,45.001,34203.78910,1.91953,405.227,32.082,45.068,45.000,0.00,0.09,-272.72,-272.77,-2,973,-1,21.1,6.5,-17.0,20.8,6.7,-16.9,5.73,2.02,-13.2,25.6
2015-05-03 00:24:00,0.0,1.91532,0.00041,404.170,0.024,0.2164,0.0013,139.999,45.001,34204.19334,1.91944,405.228,32.138,45.068,45.000,0.00,0.09,-272.72,-272.78,-3,973,-1,21.1,6.5,-17.0,20.8,6.7,-16.8,5.73,2.03,-13.3,25.5
2015-05-03 00:25:00,0.0,1.91546,0.00039,404.176,0.026,0.2169,0.0015,139.998,45.001,34204.77467,1.91957,405.236,32.213,45.068,45.000,0.00,0.09,-272.72,-272.77,-2,973,-1,21.1,6.5,-17.0,20.8,6.7,-16.8,5.73,2.05,-13.3,25.6
2015-05-03 00:26:00,0.0,1.91555,0.00035,404.177,0.028,0.2176,0.0018,139.999,45.001,34204.98013,1.91965,405.239,32.295,45.068,45.000,0.00,0.09,-272.72,-272.78,-2,971,-1,21.1,6.6,-16.9,20.8,6.7,-16.8,5.73,2.03,-13.3,25.6
2015-05-03 00:27:00,0.0,1.91543,0.00046,404.177,0.035,0.2194,0.0018,140.000,45.001,34205.20247,1.91961,405.249,32.378,45.068,44.999,0.00,0.09,-272.72,-272.78,-2,970,-2,21.0,6.6,-16.9,20.8,6.7,-16.7,5.73,2.00,-13.3,25.7
2015-05-03 00:28:00,0.0,1.91541,0.00043,404.174,0.028,0.2203,0.0018,140.000,45.001,34205.11444,1.91958,405.250,32.454,45.068,44.999,0.00,0.09,-272.71,-272.78,-2,971,-2,21.0,6.6,-16.8,20.8,6.8,-16.7,5.73,1.98,-13.3,25.7
2015-05-03 00:29:00,0.0,1.91538,0.00024,404.162,0.036,0.2184,0.0017,140.002,45.001,34205.79049,1.91953,405.232,32.503,45.067,44.999,0.00,0.09,-272.72,-272.77,-2,971,-2,21.0,6.6,-16.8,20.8,6.8,-16.7,5.73,1.97,-13.3,25.7
2015-05-03 00:30:00,0.0,1.91532,0.00047,404.162,0.031,0.2180,0.0018,139.997,45.001,34205.97960,1.91946,405.226,32.550,45.067,44.999,0.00,0.09,-272.72,-272.78,-1,969,-2,21.0,6.6,-16.8,20.8,6.8,-16.7,5.73,1.97,-13.3,25.7
2015-05-03 00:31:00,0.0,1.91496,0.00019,404.149,0.027,0.2181,0.0019,139.998,45.001,34208.66457,1.91908,405.214,32.571,45.067,44.999,0.00,0.09,-272.72,-272.77,-2,969,-1,21.0,6.6,-16.9,20.8,6.7,-16.7,5.73,2.00,-13.2,25.7
2015-05-03 00:32:00,0.0,1.91526,0.00046,404.164,0.038,0.2173,0.0016,139.998,45.000,34207.58537,1.91938,405.226,32.609,45.067,44.999,0.00,0.09,-272.71,-272.77,-2,969,-1,21.0,6.5,-16.9,20.8,6.7,-16.8,5.73,2.02,-13.3,25.7
2015-05-03 00:33:00,0.0,1.91514,0.00039,404.155,0.028,0.2155,0.0016,140.000,45.000,34209.47935,1.91922,405.209,32.627,45.067,44.999,0.00,0.09,-272.72,-272.78,-2,969,-2,21.0,6.5,-17.0,20.8,6.7,-16.8,5.73,2.05,-13.3,25.7
2015-05-03 00:34:00,0.0,1.91502,0.00038,404.182,0.034,0.2159,0.0020,139.996,45.000,34205.94906,1.91913,405.236,32.639,45.068,45.000,0.00,0.09,-272.71,-272.78,-1,968,-1,21.0,6.5,-17.0,20.8,6.7,-16.9,5.73,2.04,-13.3,25.7
2015-05-03 00:35:00,0.0,1.91485,0.00032,404.172,0.027,0.2166,0.0019,139.997,45.000,34205.78223,1.91897,405.231,32.660,45.068,45.000,0.00,0.09,-272.71,-272.77,-2,968,-1,21.0,6.5,-17.0,20.8,6.7,-16.8,5.73,2.02,-13.2,25.6
2015-05-03 00:36:00,0.0,1.91489,0.00027,404.134,0.036,0.2178,0.0017,139.996,45.000,34207.42458,1.91899,405.199,32.661,45.068,45.000,0.00,0.09,-272.72,-272.78,-2,968,-1,21.0,6.6,-16.9,20.8,6.7,-16.8,5.73,1.98,-13.3,25.7
2015-05-03 00:37:00,0.0,1.91461,0.00030,404.154,0.031,0.2172,0.0018,139.999,45.000,34209.59125,1.91871,405.214,32.678,45.068,45.000,0.00,0.09,-272.73,-272.78,-1,969,-2,21.0,6.6,-16.8,20.8,6.7,-16.7,5.73,1.96,-13.2,25.6
2015-05-03 00:38:00,0.0,1.91467,0.00038,404.170,0.021,0.2193,0.0021,139.997,45.000,34208.38667,1.91885,405.241,32.678,45.068,45.000,0.00,0.09,-272.72,-272.78,-1,967,-2,21.1,6.6,-16.8,20.8,6.8,-16.7,5.73,1.97,-13.2,25.6
2015-05-03 00:39:00,0.0,1.91438,0.00039,404.161,0.034,0.2199,0.0013,139.999,45.000,34205.40101,1.91857,405.235,32.659,45.068,45.000,0.00,0.09,-272.72,-272.77,-2,967,-2,21.1,6.6,-16.7,20.8,6.8,-16.6,5.73,1.99,-13.2,25.6
2015-05-03 00:40:00,0.0,1.91405,0.00052,404.135,0.023,0.2201,0.0018,140.001,45.000,34206.67428,1.91824,405.212,32.653,45.068,45.000,0.00,0.09,-272.73,-272.78,-2,969,-2,21.1,6.6,-16.8,20.8,6.8,-16.6,5.73,2.00,-13.2,25.6
2015-05-03 00:41:00,0.0,1.91384,0.00036,404.153,0.039,0.2182,0.0018,140.001,45.000,34208.10710,1.91798,405.219,32.679,45.068,45.000,0.00,0.09,-272.72,-272.77,-1,968,-1,21.1,6.6,-16.9,20.8,6.8,-16.7,5.73,2.03,-13.2,25.6
2015-05-03 00:42:00,0.0,1.91398,0.00036,404.166,0.033,0.2161,0.0021,139.997,45.000,34203.26306,1.91804,405.220,32.684,45.068,45.000,0.00,0.09,-272.72,-272.77,-1,967,-1,21.1,6.5,-16.9,20.8,6.7,-16.8,5.73,2.05,-13.2,25.5
2015-05-03 00:43:00,0.0,1.91385,0.00039,404.190,0.027,0.2153,0.0020,140.004,45.000,34203.39561,1.91792,405.244,32.679,45.068,45.000,0.00,0.09,-272.72,-272.78,-1,968,-1,21.1,6.5,-17.0,20.8,6.7,-16.9,5.73,2.04,-13.2,25.5
2015-05-03 00:44:00,0.0,1.91412,0.00029,404.197,0.030,0.2148,0.0018,139.998,45.000,34200.71340,1.91821,405.248,32.668,45.068,45.000,0.00,0.09,-272.72,-272.77,-2,969,-2,21.1,6.5,-17.0,20.8,6.7,-16.9,5.73,2.01,-13.2,25.5
2015-05-03 00:45:00,0.0,1.91397,0.00039,404.169,0.032,0.2157,0.0019,140.000,45.000,34199.48752,1.91803,405.224,32.685,45.068,45.000,0.00,0.09,-272.71,-272.77,-1,967,-1,21.1,6.5,-17.0,20.8,6.7,-16.9,5.73,1.96,-13.2,25.5
2015-05-03 00:46:00,0.0,1.91404,0.00025,404.195,0.040,0.2143,0.0017,140.003,45.000,34200.02221,1.91812,405.241,32.688,45.068,45.000,0.00,0.09,-272.72,-272.78,-1,967,-1,21.1,6.4,-17.1,20.8,6.6,-16.9,5.73,1.95,-13.2,25.6
2015-05-03 00:47:00,0.0,1.91414,0.00029,404.192,0.028,0.2142,0.0016,139.998,45.000,34196.22163,1.91819,405.238,32.687,45.068,45.000,0.00,0.09,-272.72,-272.78,-2,966,-2,21.1,6.4,-17.1,20.8,6.6,-17.0,5.73,1.97,-13.2,25.6
2015-05-03 00:48:00,0.0,1.91396,0.00040,404.180,0.028,0.2148,0.0013,139.995,45.000,34196.79858,1.91802,405.230,32.696,45.068,45.000,0.00,0.09,-272.72,-272.78,-2,967,-1,21.1,6.4,-17.1,20.8,6.6,-16.9,5.73,2.00,-13.2,25.6
2015-05-03 00:49:00,0.0,1.91382,0.00051,404.189,0.041,0.2125,0.0021,139.997,45.000,34195.77175,1.91785,405.228,32.734,45.068,45.000,0.00,0.09,-272.72,-272.78,-2,968,-1,21.1,6.4,-17.1,20.8,6.6,-17.0,5.73,2.04,-13.2,25.6
2015-05-03 00:50:00,0.0,1.91375,0.00039,404.210,0.027,0.2120,0.0016,139.999,45.000,34195.58396,1.91777,405.246,32.752,45.068,45.000,0.00,0.09,-272.73,-272.78,-2,968,-1,21.1,6.4,-17.2,20.8,6.6,-17.0,5.73,2.04,-13.2,25.6
2015-05-03 00:51:00,0.0,1.91364,0.00041,404.192,0.031,0.2116,0.0020,139.999,45.000,34197.41233,1.91766,405.225,32.758,45.068,45.000,0.00,0.09,-272.72,-272.78,-1,968,-1,21.1,6.4,-17.2,20.8,6.6,-17.1,5.73,2.02,-13.2,25.6
2015-05-03 00:52:00,0.0,1.91350,0.00035,404.190,0.021,0.2122,0.0020,140.001,45.000,34198.72828,1.91752,405.227,32.755,45.068,45.000,0.00,0.09,-272.72,-272.77,-1,967,-1,21.1,6.4,-17.2,20.8,6.6,-17.0,5.73,1.97,-13.2,25.5
2015-05-03 00:53:00,0.0,1.91365,0.00036,404.197,0.031,0.2100,0.0017,140.001,45.000,34199.95460,1.91762,405.223,32.751,45.068,45.000,0.00,0.09,-272.72,-272.78,-1,966,-1,21.1,6.3,-17.2,20.8,6.5,-17.1,5.73,1.96,-13.2,25.6
2015-05-03 00:54:00,0.0,1.91374,0.00031,404.193,0.037,0.2122,0.0022,140.000,45.000,34198.99335,1.91776,405.230,32.750,45.068,45.000,0.00,0.09,-272.72,-272.78,-2,967,-1,21.2,6.3,-17.2,20.9,6.5,-17.1,5.73,1.97,-13.2,25.6
2015-05-03 00:55:00,0.0,1.91408,0.00047,404.207,0.026,0.2140,0.0013,140.000,45.000,34196.35913,1.91812,405.252,32.750,45.068,45.000,0.00,0.09,-272.71,-272.77,-2,968,-1,21.2,6.4,-17.1,20.8,6.6,-17.0,5.73,2.00,-13.2,25.6
2015-05-03 00:56:00,0.0,1.91397,0.00041,404.203,0.032,0.2153,0.0016,140.001,45.000,34197.07310,1.91805,405.254,32.788,45.068,45.000,0.00,0.09,-272.72,-272.77,-1,968,-1,21.2,6.4,-17.0,20.8,6.6,-16.9,5.73,2.02,-13.2,25.6
2015-05-03 00:57:00,0.0,1.91378,0.00035,404.200,0.041,0.2146,0.0023,139.999,45.000,34193.90174,1.91787,405.249,32.812,45.068,45.000,0.00,0.09,-272.72,-272.79,-1,968,-1,21.2,6.4,-17.0,20.9,6.6,-16.9,5.73,2.04,-13.2,25.6
2015-05-03 00:58:00,0.0,1.91423,0.00032,404.199,0.032,0.2159,0.0018,140.001,45.000,34194.29479,1.91826,405.253,32.789,45.068,44.999,0.00,0.09,-272.72,-272.78,-1,966,-1,21.2,6.4,-17.0,20.8,6.6,-16.9,5.73,2.03,-13.2,25.6
2015-05-03 00:59:00,0.0,1.91406,0.00041,404.193,0.033,0.2158,0.0015,140.003,45.000,34194.85603,1.91817,405.248,32.768,45.068,45.000,0.00,0.09,-272.71,-272.77,-2,967,-1,21.2,6.4,-17.0,20.9,6.6,-16.9,5.73,2.00,-13.2,25.6
2015-05-03 01:00:00,0.0,1.91413,0.00036,404.202,0.037,0.2157,0.0017,139.998,45.000,34194.01018,1.91821,405.256,32.753,45.068,45.000,0.00,0.09,-272.73,-272.78,-2,969,-1,21.2,6.4,-17.0,20.9,6.6,-16.9,5.73,1.98,-13.2,25.6
2015-05-03 01:01:00,0.0,1.91418,0.00038,404.207,0.031,0.2165,0.0020,140.001,45.000,34196.57527,1.91825,405.265,32.748,45.068,45.000,0.00,0.09,-272.72,-272.78,-1,968,-1,21.2,6.4,-17.0,20.9,6.6,-16.9,5.73,1.96,-13.2,25.6
2015-05-03 01:02:00,0.0,1.91399,0.00037,404.181,0.033,0.2165,0.0014,139.999,45.000,34196.58793,1.91812,405.240,32.750,45.068,45.000,0.00,0.09,-272.72,-272.77,-1,967,-1,21.2,6.4,-17.0,20.9,6.7,-16.8,5.73,1.97,-13.2,25.6
2015-05-03 01:03:00,0.0,1.91406,0.00037,404.177,0.033,0.2187,0.0018,139.999,45.000,34197.91882,1.91817,405.245,32.750,45.068,45.000,0.00,0.09,-272.72,-272.78,-2,967,-1,21.2,6.5,-16.9,20.9,6.7,-16.8,5.73,2.00,-13.2,25.6
2015-05-03 01:04:00,0.0,1.91434,0.00039,404.182,0.026,0.2191,0.0016,140.000,45.000,34196.62050,1.91850,405.253,32.759,45.068,45.000,0.00,0.09,-272.73,-272.77,-2,967,-1,21.2,6.5,-16.9,20.9,6.7,-16.7,5.73,2.05,-13.2,25.6
2015-05-03 01:05:00,0.0,1.91439,0.00040,404.194,0.032,0.2183,0.0014,139.998,45.000,34193.78522,1.91856,405.261,32.769,45.068,45.000,0.00,0.09,-272.72,-272.77,-2,968,-1,21.2,6.5,-16.8,20.9,6.7,-16.7,5.73,2.05,-13.2,25.6
2015-05-03 01:06:00,0.0,1.91430,0.00035,404.184,0.027,0.2208,0.0017,139.999,45.000,34195.07766,1.91843,405.263,32.778,45.068,45.000,0.00,0.09,-272.72,-272.78,-2,968,-1,21.2,6.6,-16.7,20.9,6.8,-16.6,5.73,2.01,-13.2,25.6
2015-05-03 01:07:00,0.0,1.91460,0.00049,404.179,0.027,0.2224,0.0015,139.996,45.000,34193.19135,1.91880,405.267,32.793,45.068,45.000,0.00,0.09,-272.72,-272.77,-2,968,-1,21.2,6.6,-16.6,20.9,6.8,-16.5,5.73,1.96,-13.2,25.6
2015-05-03 01:08:00,0.0,1.91467,0.00024,404.164,0.024,0.2214,0.0020,140.001,45.000,34196.46387,1.91889,405.246,32.800,45.068,45.000,0.00,0.09,-272.72,-272.77,-1,968,-1,21.2,6.6,-16.6,20.9,6.9,-16.5,5.73,1.95,-13.2,25.6
2015-05-03 01:09:00,0.0,1.91433,0.00038,404.176,0.030,0.2213,0.0018,139.998,45.000,34194.93577,1.91851,405.257,32.799,45.068,45.000,0.00,0.09,-272.71,-272.77,-1,968,-1,21.2,6.6,-16.7,20.9,6.8,-16.6,5.73,1.97,-13.2,25.6
2015-05-03 01:10:00,0.0,1.91425,0.00042,404.178,0.036,0.2192,0.0020,140.008,45.000,34196.20556,1.91841,405.249,32.808,45.068,45.000,0.00,0.09,-272.72,-272.78,-1,967,-1,21.2,6.5,-16.8,20.9,6.8,-16.6,5.73,2.02,-13.2,25.6
2015-05-03 01:11:00,0.0,1.91473,0.00032,404.188,0.029,0.2173,0.0019,139.997,45.000,34194.18823,1.91884,405.251,32.802,45.068,45.000,0.00,0.09,-272.73,-272.78,-1,967,-1,21.2,6.5,-17.0,20.9,6.7,-16.7,5.73,2.05,-13.2,25.6
2015-05-03 01:12:00,0.0,1.91463,0.00029,404.183,0.039,0.2179,0.0014,140.000,45.000,34195.23325,1.91876,405.247,32.791,45.068,45.000,0.00,0.09,-272.71,-272.78,-1,966,-1,21.2,6.5,-16.9,20.9,6.7,-16.8,5.73,2.03,-13.2,25.6
2015-05-03 01:13:00,0.0,1.91466,0.00041,404.176,0.025,0.2200,0.0018,140.000,45.000,34194.72248,1.91883,405.252,32.772,45.068,45.000,0.00,0.09,-272.72,-272.78,-1,966,-1,21.2,6.5,-16.8,20.9,6.7,-16.7,5.73,1.99,-13.2,25.6
2015-05-03 01:14:00,0.0,1.91434,0.00033,404.155,0.028,0.2198,0.0021,140.001,45.000,34197.50286,1.91851,405.230,32.753,45.068,45.000,0.00,0.09,-272.72,-272.78,-2,967,-1,21.2,6.5,-16.8,20.9,6.8,-16.6,5.73,1.96,-13.2,25.6
2015-05-03 01:15:00,0.0,1.91430,0.00028,404.161,0.030,0.2209,0.0015,140.000,45.000,34198.24412,1.91848,405.239,32.750,45.068,45.000,0.00,0.09,-272.72,-272.77,-2,968,-1,21.2,6.5,-16.8,20.9,6.8,-16.6,5.73,1.96,-13.2,25.6
2015-05-03 01:16:00,0.0,1.91452,0.00047,404.183,0.032,0.2204,0.0022,140.001,45.000,34198.15458,1.91867,405.261,32.749,45.069,45.000,0.00,0.09,-272.72,-272.77,-2,969,-1,21.2,6.5,-16.8,20.9,6.8,-16.6,5.73,1.99,-13.2,25.6
2015-05-03 01:17:00,0.0,1.91429,0.00035,404.166,0.028,0.2208,0.0022,140.000,45.000,34199.50944,1.91852,405.246,32.709,45.069,45.000,0.00,0.09,-272.72,-272.78,-1,967,-1,21.3,6.5,-16.8,20.9,6.8,-16.6,5.73,2.02,-13.2,25.6
2015-05-03 01:18:00,0.0,1.91406,0.00039,404.176,0.026,0.2208,0.0017,139.999,45.000,34199.28098,1.91823,405.254,32.691,45.069,45.001,0.00,0.09,-272.72,-272.77,-1,967,-1,21.2,6.5,-16.8,20.9,6.8,-16.6,5.73,2.05,-13.1,25.6
2015-05-03 01:19:00,0.0,1.91439,0.00035,404.183,0.041,0.2191,0.0016,140.004,45.000,34200.88384,1.91855,405.255,32.706,45.069,45.001,0.00,0.09,-272.71,-272.77,-2,967,-1,21.3,6.5,-16.8,20.9,6.7,-16.6,5.73,2.04,-13.1,25.6
2015-05-03 01:20:00,0.0,1.91400,0.00040,404.161,0.028,0.2196,0.0016,140.001,45.000,34201.86507,1.91815,405.235,32.738,45.069,45.001,0.00,0.09,-272.72,-272.78,-2,968,-1,21.3,6.5,-16.8,20.9,6.7,-16.6,5.73,2.00,-13.1,25.6
2015-05-03 01:21:00,0.0,1.91402,0.00033,404.171,0.028,0.2196,0.0013,139.999,45.000,34200.92799,1.91818,405.244,32.749,45.068,45.000,0.00,0.09,-272.72,-272.77,-1,968,-1,21.3,6.5,-16.8,20.9,6.7,-16.6,5.73,1.97,-13.2,25.6
2015-05-03 01:22:00,0.0,1.91379,0.00035,404.177,0.041,0.2189,0.0011,139.997,45.000,34200.03101,1.91794,405.247,32.752,45.068,45.000,0.00,0.09,-272.72,-272.77,-1,968,-1,21.3,6.5,-16.8,20.9,6.7,-16.6,5.73,1.94,-13.2,25.6
2015-05-03 01:23:00,0.0,1.91396,0.00047,404.149,0.027,0.2185,0.0017,139.999,45.000,34201.90679,1.91813,405.217,32.774,45.068,45.000,0.00,0.09,-272.71,-272.77,-1,967,-1,21.3,6.5,-16.8,20.9,6.7,-16.7,5.73,1.98,-13.1,25.6
2015-05-03 01:24:00,0.0,1.91388,0.00033,404.157,0.030,0.2164,0.0016,140.004,45.000,34203.07231,1.91796,405.215,32.789,45.068,45.000,0.00,0.09,-272.72,-272.78,-1,966,-1,21.3,6.4,-16.9,20.9,6.7,-16.7,5.73,2.03,-13.1,25.6
2015-05-03 01:25:00,0.0,1.91399,0.00027,404.157,0.029,0.2168,0.0023,139.998,45.000,34200.68994,1.91807,405.216,32.813,45.068,45.000,0.00,0.09,-272.72,-272.78,-1,966,-1,21.3,6.4,-17.0,20.9,6.7,-16.8,5.73,2.05,-13.2,25.6
2015-05-03 01:26:00,0.0,1.91376,0.00042,404.180,0.022,0.2191,0.0016,139.995,45.000,34198.97238,1.91793,405.251,32.811,45.068,45.000,0.00,0.09,-272.71,-272.78,-1,966,-1,21.3,6.5,-16.9,20.9,6.7,-16.7,5.73,2.02,-13.1,25.6
2015-05-03 01:27:00,0.0,1.91384,0.00034,404.177,0.030,0.2196,0.0020,139.999,45.000,34200.16657,1.91798,405.248,32.829,45.068,45.000,0.00,0.09,-272.72,-272.78,-1,966,-1,21.3,6.5,-16.8,20.9,6.7,-16.6,5.73,1.97,-13.1,25.6
2015-05-03 01:28:00,0.0,1.91427,0.00034,404.179,0.027,0.2205,0.0015,139.999,45.000,34198.58818,1.91844,405.258,32.861,45.068,45.000,0.00,0.09,-272.72,-272.78,-1,966,-1,21.3,6.5,-16.8,20.9,6.7,-16.6,5.73,1.94,-13.1,25.6
2015-05-03 01:29:00,0.0,1.91412,0.00043,404.144,0.035,0.2196,0.0012,139.997,45.000,34197.44526,1.91827,405.216,32.868,45.068,45.000,0.00,0.09,-272.71,-272.77,-1,966,-1,21.3,6.5,-16.8,20.9,6.7,-16.6,5.73,1.98,-13.1,25.7
2015-05-03 01:30:00,0.0,1.91377,0.00036,404.169,0.024,0.2206,0.0011,140.001,45.000,34198.48346,1.91800,405.248,32.873,45.068,45.000,0.00,0.09,-272.72,-272.78,-2,966,-1,21.3,6.5,-16.8,20.9,6.8,-16.6,5.73,2.03,-13.1,25.7
2015-05-03 01:31:00,0.0,1.91389,0.00039,404.137,0.025,0.2187,0.0009,140.000,45.000,34200.66392,1.91802,405.206,32.872,45.068,45.000,0.00,0.09,-272.73,-272.78,-2,967,-1,21.3,6.5,-16.9,20.9,6.7,-16.7,5.73,2.06,-13.1,25.6
2015-05-03 01:32:00,0.0,1.91413,0.00036,404.191,0.032,0.2189,0.0018,140.001,45.000,34199.73052,1.91825,405.259,32.874,45.068,45.000,0.00,0.09,-272.71,-272.77,-2,968,-1,21.3,6.5,-16.9,20.9,6.7,-16.7,5.73,2.03,-13.1,25.7
2015-05-03 01:33:00,0.0,1.91386,0.00035,404.159,0.022,0.2199,0.0016,139.995,45.000,34201.02655,1.91804,405.234,32.872,45.068,45.000,0.00,0.09,-272.71,-272.77,-1,967,-1,21.3,6.5,-16.8,20.9,6.7,-16.7,5.73,1.99,-13.1,25.7
2015-05-03 01:34:00,0.0,1.91407,0.00044,404.142,0.025,0.2210,0.0013,140.002,45.000,34203.62961,1.91829,405.222,32.868,45.068,45.000,0.00,0.09,-272.73,-272.78,-1,967,-1,21.3,6.5,-16.8,20.9,6.7,-16.6,5.73,1.96,-13.1,25.5
2015-05-03 01:35:00,0.0,1.91422,0.00041,404.186,0.037,0.2208,0.0022,140.000,45.000,34204.17212,1.91836,405.265,32.815,45.068,45.000,0.00,0.09,-272.72,-272.77,-2,967,-1,21.3,6.5,-16.8,21.0,6.7,-16.6,5.73,1.97,-13.1,25.4
2015-05-03 01:36:00,0.0,1.91417,0.00025,404.152,0.028,0.2231,0.0014,140.000,45.000,34206.64740,1.91839,405.241,32.793,45.068,45.000,0.00,0.09,-272.71,-272.77,-2,968,-1,21.4,6.5,-16.7,21.0,6.8,-16.5,5.73,1.98,-13.1,25.4
2015-05-03 01:37:00,0.0,1.91396,0.00037,404.161,0.019,0.2220,0.0024,140.001,45.000,34211.46321,1.91818,405.247,32.742,45.069,45.000,0.00,0.09,-272.72,-272.77,-2,969,-1,21.4,6.5,-16.7,21.0,6.8,-16.5,5.73,1.99,-13.1,25.4
2015-05-03 01:38:00,0.0,1.91396,0.00037,404.167,0.022,0.2205,0.0017,140.000,45.000,34214.18298,1.91812,405.245,32.690,45.069,45.001,0.00,0.09,-272.72,-272.77,-2,970,-1,21.4,6.5,-16.7,21.0,6.8,-16.5,5.73,2.00,-13.1,25.5
2015-05-03 01:39:00,0.0,1.91395,0.00032,404.171,0.035,0.2188,0.0014,140.004,44.999,34219.67752,1.91813,405.241,32.651,45.069,45.000,0.00,0.09,-272.71,-272.78,-2,971,-1,21.4,6.5,-16.8,21.0,6.7,-16.6,5.73,2.01,-13.1,25.5
2015-05-03 01:40:00,0.0,1.91396,0.00036,404.145,0.037,0.2195,0.0021,140.001,44.999,34223.47873,1.91807,405.216,32.559,45.068,45.000,0.00,0.09,-272.72,-272.78,-2,973,-1,21.4,6.4,-16.8,21.1,6.7,-16.6,5.73,2.02,-13.1,25.4
2015-05-03 01:41:00,0.0,1.91396,0.00045,404.158,0.038,0.2180,0.0016,140.003,44.999,34225.11245,1.91812,405.225,32.438,45.068,45.000,0.00,0.09,-272.72,-272.78,-3,973,-2,21.4,6.4,-16.9,21.1,6.7,-16.7,5.73,2.03,-13.1,25.5
2015-05-03 01:42:00,0.0,1.91390,0.00024,404.171,0.037,0.2184,0.0016,140.000,44.999,34225.55278,1.91803,405.237,32.346,45.068,45.000,0.00,0.09,-272.72,-272.77,-3,974,-2,21.5,6.4,-16.9,21.1,6.6,-16.7,5.73,2.03,-13.1,25.7
2015-05-03 01:43:00,0.0,1.91417,0.00029,404.148,0.035,0.2197,0.0014,140.001,44.999,34226.61404,1.91829,405.221,32.267,45.069,45.000,0.00,0.09,-272.72,-272.78,-3,974,-2,21.4,6.4,-16.8,21.1,6.7,-16.6,5.73,2.03,-13.1,25.7
2015-05-03 01:44:00,0.0,1.91430,0.00031,404.151,0.031,0.2215,0.0015,139.999,44.999,34225.70316,1.91853,405.232,32.202,45.069,45.001,0.00,0.09,-272.72,-272.78,-3,975,-2,21.5,6.5,-16.8,21.1,6.7,-16.6,5.73,2.01,-13.1,25.7
2015-05-03 01:45:00,0.0,1.91400,0.00049,404.142,0.032,0.2224,0.0015,140.003,44.999,34227.82477,1.91818,405.230,32.141,45.069,45.001,0.00,0.09,-272.72,-272.78,-3,975,-2,21.4,6.5,-16.7,21.1,6.8,-16.5,5.73,1.99,-13.1,25.7
2015-05-03 01:46:00,0.0,1.91401,0.00043,404.155,0.026,0.2248,0.0014,140.002,44.999,34226.03713,1.91830,405.255,32.108,45.069,45.001,0.00,0.09,-272.71,-272.77,-3,976,-2,21.4,6.6,-16.6,21.1,6.8,-16.4,5.73,1.97,-13.1,25.7